TimeCST,TemperatureF,Dew PointF,Humidity,Sea Level PressureIn,VisibilityMPH,Wind Direction,Wind SpeedMPH,Gust SpeedMPH,PrecipitationIn,Events,Conditions,WindDirDegrees,DateUTC
12:41 AM,30.2,24.8,80,29.96,10.0,WNW,6.9,-,N/A,,Overcast,290,2013-02-27 06:41:00
12:53 AM,30.9,25.0,79,30.00,10.0,West,8.1,-,N/A,,Overcast,280,2013-02-27 06:53:00
1:24 AM,30.2,24.8,80,29.98,10.0,West,10.4,-,N/A,,Overcast,280,2013-02-27 07:24:00
1:53 AM,32.0,25.0,75,30.02,10.0,NW,12.7,-,N/A,,Overcast,310,2013-02-27 07:53:00
2:05 AM,32.0,24.8,75,29.99,10.0,NW,16.1,-,N/A,,Overcast,310,2013-02-27 08:05:00
2:53 AM,32.0,27.0,82,30.02,9.0,NW,18.4,-,0.00,Snow,Light Snow,320,2013-02-27 08:53:00
3:33 AM,30.2,26.6,86,30.01,10.0,NW,19.6,-,0.00,,Scattered Clouds,320,2013-02-27 09:33:00
3:53 AM,30.0,25.0,82,30.04,10.0,NW,16.1,-,0.00,,Clear,320,2013-02-27 09:53:00
4:53 AM,28.9,23.0,78,30.07,10.0,NW,17.3,-,N/A,,Clear,320,2013-02-27 10:53:00
5:53 AM,28.9,23.0,78,30.10,10.0,NW,17.3,-,N/A,,Clear,320,2013-02-27 11:53:00
6:27 AM,28.4,23.0,80,30.08,10.0,NW,12.7,-,N/A,,Mostly Cloudy,320,2013-02-27 12:27:00
6:43 AM,28.4,23.0,80,30.10,10.0,NW,11.5,-,N/A,,Scattered Clouds,310,2013-02-27 12:43:00
6:53 AM,28.0,23.0,81,30.14,10.0,NW,11.5,-,N/A,,Partly Cloudy,320,2013-02-27 12:53:00
7:53 AM,30.0,24.1,79,30.19,10.0,NW,13.8,-,N/A,,Clear,320,2013-02-27 13:53:00
8:53 AM,32.0,24.8,75,30.17,10.0,NNW,15.0,-,N/A,,Clear,330,2013-02-27 14:53:00
9:53 AM,35.1,26.1,70,30.23,10.0,NNW,23.0,29.9,N/A,,Clear,340,2013-02-27 15:53:00
10:53 AM,37.0,27.0,67,30.26,10.0,NNW,24.2,32.2,N/A,,Mostly Cloudy,340,2013-02-27 16:53:00
11:46 AM,39.2,28.4,65,30.23,10.0,NNW,18.4,31.1,N/A,,Scattered Clouds,340,2013-02-27 17:46:00
11:53 AM,39.0,27.0,62,30.27,10.0,North,24.2,29.9,N/A,,Scattered Clouds,350,2013-02-27 17:53:00
12:53 PM,41.0,28.0,60,30.25,10.0,North,17.3,-,N/A,,Partly Cloudy,350,2013-02-27 18:53:00
1:53 PM,42.1,26.1,53,30.23,10.0,North,18.4,-,N/A,,Partly Cloudy,350,2013-02-27 19:53:00
2:53 PM,44.1,28.0,53,30.23,10.0,North,18.4,-,N/A,,Partly Cloudy,350,2013-02-27 20:53:00
3:53 PM,43.0,26.1,51,30.22,10.0,North,15.0,-,N/A,,Clear,360,2013-02-27 21:53:00
4:53 PM,43.0,24.1,47,30.23,10.0,NNW,16.1,21.9,N/A,,Clear,340,2013-02-27 22:53:00
5:53 PM,41.0,23.0,49,30.24,10.0,NNW,9.2,-,N/A,,Clear,330,2013-02-27 23:53:00
6:53 PM,35.1,24.1,64,30.26,10.0,North,6.9,-,N/A,,Clear,350,2013-02-28 00:53:00
7:53 PM,36.0,21.0,55,30.27,10.0,NNW,6.9,-,N/A,,Clear,330,2013-02-28 01:53:00
8:53 PM,34.0,21.0,59,30.27,10.0,NW,6.9,-,N/A,,Clear,310,2013-02-28 02:53:00
9:53 PM,30.9,21.0,67,30.29,10.0,WNW,5.8,-,N/A,,Clear,300,2013-02-28 03:53:00
10:53 PM,33.1,21.0,61,30.28,10.0,NW,6.9,-,N/A,,Clear,310,2013-02-28 04:53:00
11:53 PM,30.2,19.4,64,30.26,10.0,WNW,4.6,-,N/A,,Clear,300,2013-02-28 05:53:00